Hourly Data Report for February 15, 2013

BAGOTVILLE A
QUEBEC

48°20'00.000" N
71°00'00.000" W
159.10 m
7060400
71727
YBG

Download Data

Hourly Data (February 2013)
Hourly Data Report for February 15, 2013
TIME
LST
Temp Definition
°C
Dew Point Definition
°C
Rel Hum Definition
%
Precip. Amount Definition
mm

Wind Dir Definition
10's deg

Wind Spd Definition
km/h
Visibility Definition
km
Stn Press Definition
kPa
Hmdx Definition


Wind Chill Definition


Weather Definition


00:00 -6.1 -7.2 92   9 6 24.1 99.30   -9 Mostly Cloudy
01:00 -6.6 -8.1 89   11 13 24.1 99.30   -12 Mostly Cloudy
02:00 -7.2 -8.1 93   11 13 24.1 99.28   -13 Cloudy
03:00 -7.6 -8.5 93   11 11 24.1 99.27   -13 Cloudy
04:00 -7.6 -8.5 93   11 15 24.1 99.26   -14 Cloudy
05:00 -8.8 -9.9 92   12 11 24.1 99.25   -14 Mostly Cloudy
06:00 -9.4 -10.6 91   11 11 24.1 99.23   -15 Mainly Clear
07:00 -8.8 -10.3 89   11 15 32.2 99.21   -15 Mostly Cloudy
08:00 -8.4 -9.8 90   11 13 40.2 99.16   -14 Mostly Cloudy
09:00 -7.4 -8.7 90   10 15 40.2 99.12   -14 Mostly Cloudy
10:00 -4.6 -6.4 87   10 24 40.2 99.09   -12 Snow
11:00 -3.1 -5.9 81   10 24 8.0 99.08   -10 Snow
12:00 -2.6 -3.8 91   9 24 1.6 99.01   -9 Snow
13:00 -2.6 -3.2 96   9 28 1.2 98.94   -10 Snow
14:00 -2.1 -2.6 96   9 26 2.4 98.89   -9 Snow
15:00 -1.8 -2.6 94   9 28 2.4 98.87   -9 Snow
16:00 -1.7 -3.3 89   9 13 24.1 98.86   -6 Snow
17:00 -1.6 -3.4 87   9 26 24.1 98.88   -8 Snow
18:00 -1.6 -3.4 87   10 22 24.1 98.89   -8 Snow
19:00 -1.7 -3.6 87   10 19 24.1 98.88   -7 Snow
20:00 -1.6 -3.1 89   10 22 24.1 98.88   -8 Cloudy
21:00 -1.6 -3.1 89   10 24 24.1 98.87   -8 Snow
22:00 -1.6 -3.1 89   10 17 24.1 98.88   -7 Mostly Cloudy
23:00 -2.0 -3.3 91   10 15 24.1 98.88   -7 Mostly Cloudy

Notes on Data Quality.

Legend

  • E = Estimated
  • M = Missing
  • NA = Not Available*
  • [empty] = Indicates an unobserved value
Date modified: